YPPH

Perth International Airport

Airport
ICAO code
YPPH
IATA Code
PER
Summary
ICAO Region
APAC
ICAO Territory
Location

Redcliffe, Western Australia

Serving
Perth
Elevation
67 ft
Coordinates
31° 56' 37" S , 115° 57' 48" E
KCC
Airport WX
Cumulonimbus
Metar
Observation
YPPH 011230Z 24009KT 9999 BKN027 19/13 Q1009
Station
Belmont Perth Airport
Date/Time
2022-12-01 12:30:00
Wind direction
240°
Wind speed
09 kts
Lowest cloud amount
broken clouds
Temperature
19°C
Dew point
13°C
Humidity
68%
QNH
1009 hPa
Weather condition
n/a

Perth Airport is an Australian domestic and international airport located south of Guildford, Western Australia, and is the major commercial airport servicing Western Australia's capital city, Perth.

Climatology

Dry-summer subtropical ”Mediterranean" climate (Köppen climate classification Csa) - characterized by hot, dry summers and mild winters. During the summer, subtropical high pressure cells dominate, making rainfall unlikely except for the occasional thunderstorm. In the winter, periodic storms bring rain.

SKYbrary Partners:

Safety knowledge contributed by: